NOAA 16 DEB

Satellite information

Favourite Embed

Satellite Type and Status

DEBRISIN ORBIT

Key statistics

Satellite NOAA 16 DEB at a glance.

Uptime

9168

Days in orbit

Revolutions

≈ 14.5

Per day

Orbit

SSO

Sun Synchronous Orbit

Inclination

99.0

Latest

Satellite identification and parameters

Extended collection of information and parameters for NOAA 16 DEB.

Object identification

Identified? True

Debris? True

Object name: NOAA 16 DEB

International designator: 2000-055QP

Object number (NORAD): 42347

Object ID (CCSDS): 42347

Country: UNITED STATES OF AMERICA (US)

Current information (Y/N): Y

RCS size: SMALL

Orbital parameters

Period: 99.346 minutes

Inclination: 98.9679 deg

SMA: 7105.491 km

Apoapsis: 753.499 km

Periapsis: 701.214 km

RAAN: 116.8293 deg

Eccentricy: 0.0036792

Argument of periapsis: 99.553 deg

Mean anomaly: 260.9822 deg

Mean motion: 14.49477916 rev/day

Mean motion (dot): 0.00009513 rev/day2

B* drag term: 0.0024723 1/REarth

Two-line elements (TLE)

Creation date: Oct. 26, 2025, 6:57 a.m.

Reference frame: TEME

Reference center: EARTH

Epoch: Oct. 25, 2025, 11:18 p.m. UTC

TLE line 0: 0 NOAA 16 DEB

TLE line 1: 1 42347U 00055QP 25298.97103448 .00009513 00000-0 24723-2 0 9990

TLE line 2: 2 42347 98.9679 116.8293 0036792 99.5530 260.9822 14.49477916508552

Live tracking on map

Real-time ground track for satellite NOAA 16 DEB.

In-orbit conjunctions

A list of the most updated potential collisions computed for object NOAA 16 DEB.

Target Orbit TCA Probability of collision Miss distance Type
FENGYUN 1C DEB SSO 2025-09-30 13:33:40 0.0001140143 246.0 (m) DEBRIS
COSMOS 807 LEO 2025-08-07 19:53:17 0.0001489404 96.0 (m) PAYLOAD

Associated space launch

The NOAA K, L and M POES satellites begin the fifth generation of improved environmental monitoring in support of NOAA missions. The instrument payload has significant improvements and additions/deletions. The instrument changes have effected the spacecraft subsystems and data formats.

NOAA 16 DEB was lifted into orbit during the mission ‘Titan II SLV | NOAA 16’, on board a Titan II SLV space rocket.

The launch took place on Sept. 21, 2000, 10:22 a.m. from Space Launch Complex 4W.

For more information about the launch, click the button.

Launch to space Titan II SLV | NOAA 16
Titan II SLV | NOAA 16

Agency: N/A

Status: Launch Successful

Launch date: Sept. 21, 2000, 10:22 a.m. UTC

Rocket: Titan II SLV

Launch pad: Space Launch Complex 4W

Location: Vandenberg SFB, CA, USA

...

Latest news about this satellite

There are no fresh news available about this satellite. Check back as we update our databases every day.


Newsletter sign-up

Weekly statistics, charts and insights to help you stay on top of the space industry.